[[{"header":{"parameterUnit":"m.s-1","parameterCategory":1,"la1":30.2991,"la2":30.254,"lo1":-89.0895,"lo2":-89.0444,"dx":0.0017,"dy":0.0017,"nx":28,"ny":28,"refTime":"2023-01-02T15:00:00:Z","depth":0,"parameterNumber":2,"parameterNumberName":"U-component_of_WINDS"},"data":[0,0,0,0,0,0,0,0,0,0,0,0,0,0,0,0,0,0,0,0,0,0,0,0,0,0,0,0,0,0,0,0,0,0,0,0,0,0,0,0,0,0,0,0,0,0,0,0,0,0,0,0,0,0,0,0,0,0,-3.5703,-3.5704,0,-3.5774,-3.5775,-3.5775,-3.5776,-3.5775,-3.5774,-3.5773,-3.5843,-3.5846,-3.5849,0,0,0,0,0,0,0,0,0,0,0,0,0,-3.5567,-3.557,-3.5703,-3.5704,-3.5705,-3.5774,-3.5775,-3.5776,-3.5776,-3.5775,-3.5774,-3.5773,-3.5843,-3.5846,-3.5849,0,0,0,0,0,0,0,0,0,0,0,0,0,-3.5631,-3.557,-3.5703,-3.5713,-3.5715,-3.5773,-3.5775,-3.5776,-3.5776,-3.5775,-3.5774,-3.5772,-3.5841,-3.5845,-3.5849,-3.5901,0,0,-3.5862,-3.5864,0,0,0,0,0,0,0,0,-3.5627,-3.5636,-3.5711,-3.5713,-3.5715,-3.5765,-3.5752,-3.5818,-3.5777,-3.5753,-3.5773,-3.5772,-3.5818,-3.5824,-3.584,-3.5905,-3.5908,-3.5862,-3.5865,-3.5866,-3.5868,0,0,0,0,0,0,0,-3.5623,-3.5633,-3.5731,-3.5712,-3.5714,-3.5714,-3.5722,-3.5765,-3.5792,-3.5755,-3.5755,-3.5764,-3.5819,-3.5836,-3.5842,-3.5909,-3.5862,-3.5866,-3.5868,-3.587,-3.602,-3.6021,0,0,0,0,0,0,-3.5616,-3.5629,-3.5729,-3.5733,-3.5667,-3.5718,-3.5726,-3.575,-3.5792,-3.5797,-3.5765,-3.5763,-3.583,-3.5837,-3.5844,-3.5908,-3.5866,-3.587,-3.5872,-3.6018,-3.602,-3.6022,0,0,0,0,0,0,-3.5614,-3.5625,-3.5726,-3.5681,-3.5694,-3.5722,-3.5748,-3.5752,-3.5769,-3.5799,-3.5804,-3.5777,-3.5829,-3.5839,-3.5887,-3.591,-3.5872,-3.5876,-3.6016,-3.6019,-3.6021,-3.6035,0,0,0,0,0,0,-3.561,-3.5624,-3.5644,-3.5682,-3.5696,-3.5768,-3.575,-3.5754,-3.5777,-3.5776,-3.5812,-3.5817,-3.5829,-3.5881,-3.5891,-3.5915,-3.5879,-3.6014,-3.6017,-3.602,-3.6032,-3.6037,-3.6041,0,0,0,0,0,-3.5605,-3.5645,-3.5645,-3.5658,-3.5722,-3.5769,-3.5778,-3.5791,-3.5779,-3.5799,-3.5818,-3.5816,-3.5906,-3.5886,-3.5898,-3.5923,-3.6013,-3.6017,-3.602,-3.603,-3.6036,-3.6041,0,0,0,0,0,0,-3.5608,-3.565,-3.5651,-3.5705,-3.5734,-3.5769,-3.5795,-3.5797,-3.5829,-3.5827,-3.5842,-3.585,-3.5899,-3.5916,-3.5893,-3.5976,-3.5958,-3.5964,-3.5962,-3.5968,-3.5972,-3.5966,-3.5882,0,0,0,0,0,-3.5616,-3.5651,-3.5685,-3.5729,-3.5744,-3.5767,-3.5788,-3.5796,-3.5827,-3.5838,-3.5861,-3.589,-3.5925,-3.5948,-3.5982,-3.6036,-3.6043,-3.6059,-3.6063,-3.6067,-3.6071,-3.6101,-3.6108,-3.6033,-3.6033,-3.6033,0,0,-3.5631,-3.5658,-3.5679,-3.5731,-3.5754,-3.579,-3.5777,-3.5816,-3.5842,-3.5844,-3.5891,-3.591,-3.5943,-3.5995,-3.6018,-3.601,-3.6094,-3.6071,-3.6074,-3.6076,-3.6105,-3.6112,-3.6118,-3.6036,-3.6035,-3.6035,0,0,-3.5676,-3.57,-3.5739,-3.5764,-3.58,-3.5815,-3.5825,-3.5861,-3.5873,-3.5921,-3.5924,-3.5956,-3.6016,-3.6039,-3.6059,-3.6115,-3.6114,-3.6126,-3.6149,-3.6178,-3.6184,-3.6189,-3.6208,-3.6215,-3.6131,-3.6131,-3.6131,0,-3.5689,-3.5744,-3.5759,-3.5798,-3.582,-3.5825,-3.5865,-3.5887,-3.5932,-3.5948,-3.5939,-3.6015,-3.6038,-3.6095,-3.6108,-3.6125,-3.6136,-3.6121,-3.6182,-3.6187,-3.6192,-3.6211,-3.6218,-3.6132,-3.6132,-3.6132,-3.6132,0,-3.5758,-3.5796,-3.5823,-3.5868,-3.5894,-3.5932,-3.5953,-3.5978,-3.5984,-3.6001,-3.605,-3.6078,-3.6118,-3.6132,-3.6138,-3.6191,-3.6184,-3.6179,-3.6161,-3.62,-3.6218,-3.6225,-3.6133,-3.6133,-3.6133,-3.6132,0,0,-3.5805,-3.5859,-3.5869,-3.5889,-3.593,-3.5959,-3.5999,-3.6038,-3.6059,-3.609,-3.6123,-3.6175,-3.617,-3.6193,-3.6202,-3.6227,-3.6269,-3.6218,-3.6219,-3.6226,-3.6328,-3.6331,-3.6339,-3.627,-3.6272,-3.6273,-3.6325,0,-3.5854,-3.5924,-3.594,-3.6,-3.6035,-3.6041,-3.6076,-3.6104,-3.6121,-3.6153,-3.6172,-3.6208,-3.6199,-3.6213,-3.6239,-3.6259,-3.629,-3.6255,-3.63,-3.6301,-3.6289,-3.6348,-3.6351,-3.6399,-3.6332,-3.6333,-3.6334,0,-3.5919,-3.5953,-3.6017,-3.6054,-3.6069,-3.61,-3.6138,-3.6168,-3.6201,-3.6212,-3.6238,-3.6245,-3.6286,-3.6269,-3.6325,-3.6302,-3.6321,-3.6334,-3.6336,-3.6339,-3.6318,-3.6351,-3.6415,-3.6421,-3.6345,-3.6344,-3.6343,0,-3.5946,-3.6008,-3.6054,-3.6071,-3.6116,-3.6137,-3.6156,-3.6188,-3.6211,-3.6245,-3.626,-3.6297,-3.6318,-3.6347,-3.6364,-3.635,-3.6419,-3.6403,-3.6428,-3.6428,-3.6441,-3.6439,-3.6506,-3.6456,-3.6456,-3.6456,-3.6456,0,-3.5997,-3.6036,-3.6066,-3.6095,-3.6138,-3.6156,-3.6199,-3.6218,-3.6247,-3.6279,-3.6287,-3.6316,-3.6338,-3.6371,-3.6385,-3.6429,-3.6439,-3.6448,-3.6451,-3.6446,-3.6445,-3.6458,-3.6454,-3.6458,-3.6457,-3.6457,-3.6457,0,-3.6034,-3.6056,-3.6106,-3.6145,-3.6156,-3.6186,-3.6219,-3.6246,-3.6264,-3.6305,-3.6315,-3.6343,-3.6382,-3.6403,-3.6452,-3.6461,-3.6511,-3.6513,-3.65,-3.65,-3.6524,-3.6521,-3.66,-3.6611,-3.6555,-3.6556,-3.6556,0,-3.6064,-3.6094,-3.6136,-3.6159,-3.6179,-3.6215,-3.6238,-3.6258,-3.6282,-3.6323,-3.6346,-3.6386,-3.6418,-3.6481,-3.6505,-3.6543,-3.6545,-3.657,-3.655,-3.6545,-3.6544,-3.6541,-3.6544,-3.6573,-3.6573,-3.6574,-3.6574,0,-3.6116,-3.6126,-3.616,-3.6199,-3.6227,-3.6258,-3.6289,-3.6307,-3.6331,-3.6359,-3.6399,-3.6425,-3.6475,-3.6514,-3.6554,-3.6574,-3.6578,-3.658,-3.6588,-3.6583,-3.6573,-3.6578,-3.6507,-3.6578,-3.6577,-3.6577,-3.6577,-3.6577,-3.615,-3.6176,-3.621,-3.6249,-3.6274,-3.6303,-3.6331,-3.6353,-3.6387,-3.643,-3.6439,-3.6482,-3.6515,-3.6569,-3.659,-3.6624,-3.6619,-3.663,-3.6633,-3.6635,-3.6635,-3.657,-3.6632,-3.6632,-3.6631,-3.6631,-3.6631,0,-3.6201,-3.6223,-3.6258,-3.6301,-3.6332,-3.6334,-3.6368,-3.6393,-3.6431,-3.6462,-3.6494,-3.6541,-3.6579,-3.6608,-3.6647,-3.6669,-3.6671,-3.6678,-3.6676,-3.668,-3.6638,-3.6627,-3.6675,-3.6675,-3.6675,-3.6675,-3.6675,-3.6675,-3.6231,-3.6276,-3.629,-3.6348,-3.6371,-3.6413,-3.6432,-3.6459,-3.6484,-3.6535,-3.6568,-3.6586,-3.6616,-3.6658,-3.6694,-3.6701,-3.6714,-3.6721,-3.6728,-3.6688,-3.6683,-3.6679,-3.6668,-3.6724,-3.6724,-3.6767,-3.6768,-3.6768]},{"header":{"parameterUnit":"m.s-1","parameterCategory":1,"la1":30.2991,"la2":30.254,"lo1":-89.0895,"lo2":-89.0444,"dx":0.0017,"dy":0.0017,"nx":28,"ny":28,"refTime":"2023-01-02T15:00:00:Z","depth":0,"parameterNumber":3,"parameterNumberName":"V-component_of_WINDS"},"data":[0,0,0,0,0,0,0,0,0,0,0,0,0,0,0,0,0,0,0,0,0,0,0,0,0,0,0,0,0,0,0,0,0,0,0,0,0,0,0,0,0,0,0,0,0,0,0,0,0,0,0,0,0,0,0,0,0,0,6.031,6.0311,0,6.0433,6.0435,6.0436,6.0459,6.0458,6.0457,6.0456,6.0572,6.0576,6.058,0,0,0,0,0,0,0,0,0,0,0,0,0,6.0087,6.0091,6.031,6.0312,6.0313,6.0433,6.0435,6.0436,6.0459,6.0458,6.0457,6.0456,6.0571,6.0576,6.058,0,0,0,0,0,0,0,0,0,0,0,0,0,6.0194,6.0092,6.031,6.0339,6.0343,6.0433,6.0435,6.0437,6.046,6.0458,6.0457,6.0455,6.0569,6.0575,6.0581,6.0647,0,0,6.0599,6.0602,0,0,0,0,0,0,0,0,6.0188,6.0202,6.0333,6.0337,6.0342,6.043,6.0398,6.0507,6.046,6.0415,6.0456,6.0455,6.0525,6.0535,6.0561,6.0652,6.0657,6.06,6.0603,6.0606,6.0608,0,0,0,0,0,0,0,6.018,6.0197,6.0358,6.0335,6.034,6.0344,6.0357,6.0419,6.0476,6.0419,6.0421,6.0436,6.0527,6.0555,6.0564,6.0659,6.06,6.0605,6.0609,6.0611,6.0813,6.0815,0,0,0,0,0,0,6.0169,6.019,6.0354,6.0362,6.026,6.0349,6.0364,6.0403,6.0476,6.0486,6.0437,6.0436,6.0545,6.0557,6.0568,6.0652,6.0606,6.0612,6.0615,6.0811,6.0813,6.0815,0,0,0,0,0,0,6.0164,6.0183,6.035,6.0277,6.0299,6.0354,6.0397,6.0406,6.0434,6.049,6.0499,6.0455,6.0545,6.0559,6.0628,6.0656,6.0614,6.062,6.0809,6.0812,6.0814,6.082,0,0,0,0,0,0,6.0158,6.0181,6.0209,6.0278,6.0302,6.0411,6.0399,6.0409,6.0445,6.0446,6.0509,6.0518,6.0545,6.0619,6.0634,6.0664,6.0624,6.0807,6.081,6.0813,6.0817,6.0822,6.0827,0,0,0,0,0,6.0149,6.0202,6.021,6.023,6.0338,6.0412,6.0426,6.0458,6.0447,6.0474,6.0511,6.0516,6.0651,6.0626,6.0643,6.0675,6.0805,6.0809,6.0813,6.0815,6.0821,6.0827,0,0,0,0,0,0,6.0131,6.0212,6.0221,6.0299,6.0349,6.0416,6.0451,6.0463,6.0515,6.0513,6.0547,6.0561,6.0629,6.0658,6.063,6.0744,6.0727,6.0734,6.0723,6.0729,6.0733,6.0726,6.0629,0,0,0,0,0,6.0137,6.0193,6.0259,6.0321,6.0346,6.0394,6.0427,6.0449,6.0501,6.0521,6.0562,6.061,6.0663,6.0697,6.0749,6.0821,6.0836,6.0851,6.0856,6.0859,6.0866,6.0909,6.0917,6.0828,6.0828,6.0828,0,0,6.0147,6.0198,6.0231,6.0319,6.036,6.0416,6.0412,6.047,6.0511,6.0528,6.0599,6.063,6.0685,6.0757,6.0791,6.0784,6.0894,6.0865,6.0867,6.0872,6.0914,6.0922,6.093,6.0831,6.0831,6.083,0,0,6.0197,6.024,6.0299,6.0342,6.0406,6.0438,6.0452,6.0519,6.0542,6.0613,6.0628,6.0675,6.0766,6.0806,6.0838,6.0905,6.0913,6.092,6.0945,6.0987,6.0994,6.1,6.1027,6.1035,6.0926,6.0927,6.0927,0,6.0201,6.0289,6.0326,6.0386,6.0424,6.0446,6.0505,6.0543,6.0619,6.0644,6.0636,6.0753,6.0791,6.0874,6.0891,6.0915,6.0932,6.0914,6.099,6.0997,6.1004,6.1029,6.1039,6.0927,6.0927,6.0927,6.0927,0,6.0293,6.0353,6.0392,6.0471,6.0513,6.0571,6.0616,6.0653,6.0671,6.0703,6.0775,6.0823,6.0886,6.0907,6.0922,6.0993,6.0987,6.0984,6.0968,6.1012,6.1037,6.1047,6.0928,6.0928,6.0928,6.0928,0,0,6.0333,6.0435,6.0449,6.0486,6.056,6.0606,6.0665,6.0731,6.0764,6.0815,6.0866,6.0944,6.0943,6.0979,6.0999,6.1035,6.1089,6.1028,6.103,6.104,6.1172,6.1176,6.1187,6.1094,6.1096,6.1097,6.1168,0,6.0394,6.0505,6.0541,6.0632,6.069,6.0712,6.0764,6.0814,6.0846,6.0897,6.093,6.0986,6.0979,6.1002,6.1038,6.1075,6.1116,6.1069,6.1141,6.1143,6.1129,6.1199,6.1203,6.1268,6.1178,6.1179,6.1181,0,6.0479,6.0538,6.0637,6.0707,6.0732,6.0779,6.0844,6.0892,6.0949,6.0969,6.1012,6.103,6.1091,6.1071,6.1156,6.1123,6.1154,6.1176,6.118,6.1189,6.1166,6.1213,6.1289,6.13,6.1196,6.1194,6.1193,0,6.0503,6.0606,6.068,6.071,6.0793,6.0825,6.086,6.0916,6.0954,6.1009,6.1035,6.1094,6.1127,6.1172,6.1206,6.1187,6.1288,6.127,6.1307,6.1306,6.1329,6.1327,6.1413,6.1344,6.1344,6.1344,6.1344,0,6.0568,6.0628,6.0692,6.0737,6.0806,6.0845,6.091,6.0946,6.0995,6.1047,6.1067,6.1114,6.1154,6.1206,6.1232,6.13,6.1313,6.1331,6.1338,6.1331,6.1329,6.1353,6.135,6.1347,6.1346,6.1345,6.1345,0,6.0606,6.0651,6.0734,6.0807,6.0827,6.0874,6.0935,6.0979,6.1012,6.1077,6.1094,6.1146,6.1208,6.1246,6.1323,6.134,6.1416,6.1419,6.1399,6.1402,6.1438,6.1436,6.1545,6.1562,6.1479,6.148,6.148,0,6.0646,6.0694,6.0774,6.0812,6.0849,6.0909,6.095,6.099,6.1031,6.1101,6.1136,6.1201,6.1255,6.1354,6.1396,6.1456,6.1462,6.1496,6.1471,6.1464,6.1466,6.1464,6.147,6.1501,6.1502,6.1502,6.1503,0,6.0713,6.0734,6.0794,6.0863,6.0913,6.0968,6.1022,6.1051,6.1099,6.1144,6.1211,6.1254,6.1336,6.14,6.1464,6.1497,6.1508,6.1511,6.1523,6.1518,6.1505,6.1516,6.1413,6.1508,6.1508,6.1507,6.1507,6.1507,6.0755,6.08,6.0865,6.0932,6.0978,6.1029,6.1076,6.1117,6.1175,6.1248,6.1266,6.1337,6.1393,6.1481,6.1516,6.157,6.1564,6.1581,6.1586,6.159,6.1593,6.1495,6.1581,6.1581,6.1581,6.158,6.158,0,6.0826,6.087,6.0931,6.101,6.1062,6.1072,6.1133,6.1176,6.1239,6.1292,6.1347,6.1424,6.1487,6.1535,6.1599,6.1634,6.1641,6.1649,6.1648,6.1656,6.1593,6.1577,6.1643,6.1643,6.1643,6.1643,6.1643,6.1643,6.0869,6.0948,6.0976,6.1077,6.1119,6.1192,6.1227,6.1274,6.1317,6.1404,6.1459,6.1491,6.1542,6.1611,6.1669,6.1681,6.1705,6.1713,6.1727,6.1667,6.166,6.1654,6.164,6.1717,6.1717,6.1786,6.1787,6.1787]}]]